Vertical_Velocity
3 -1 2 2 2 2 5 1 -0 0 0 2 2 3 4 1 2 1 0 0 1 1 1 1 1 -0 1 0 1 -1 -0 1 -0 1 -1 -1 -1 -1 -1 -1 -0 0 0
3 2 2 2 2 -0 -1 -3 3 1 0 2 2 0 0 1 -3 -2 -1 1 2 1 -1 1 0 1 2 -1 -2 1 2 1 -0 0 -1 1 0 -1 -1 -1 -1 -1 -1
-1 3 3 1 3 4 1 5 5 4 5 1 1 -1 -0 -3 -1 4 6 2 1 -0 -1 1 1 3 0 -1 1 1 1 1 0 -1 -1 -0 -0 -1 -2 -2 -1 0 -1
1 3 4 0 3 5 1 4 2 4 3 3 -1 1 -0 3 4 3 -1 -0 1 2 1 2 2 2 1 -0 1 2 1 -0 0 0 -1 -1 -1 -1 -1 -2 -2 -1 -1
4 3 3 2 5 3 5 -0 2 3 2 2 3 -1 1 1 1 0 1 0 1 2 2 1 1 2 1 3 1 -1 0 2 1 0 1 -0 -0 -1 -2 -2 -1 -0 -0
4 4 2 5 4 3 4 1 2 6 -4 3 3 2 2 1 1 3 -0 0 -0 -0 1 3 1 1 2 2 1 2 2 2 1 2 1 0 -1 -2 -1 -3 -3 -1 0
4 6 4 4 3 1 3 4 4 3 2 -2 2 3 3 1 1 3 1 1 2 2 2 -0 2 1 -1 1 2 2 3 0 1 0 0 1 0 0 -1 -1 0 -1 -1
5 6 5 6 2 2 2 6 4 6 2 16 -2 -0 4 3 5 1 1 0 1 0 1 3 3 2 1 1 2 2 0 1 0 2 2 0 -1 -1 -2 1 -2 1 2
0 3 2 4 2 3 3 4 4 3 2 -0 9 1 2 3 2 2 1 1 2 -1 1 2 1 0 -0 -2 -2 -0 -0 1 0 -0 1 1 -1 -1 -0 -1 -2 -0 0
-2 3 4 2 3 3 3 2 0 14 5 2 1 3 0 2 3 1 1 0 1 0 2 1 -0 0 -0 -1 2 0 -1 1 -0 -1 -0 0 -3 1 1 -2 -1 -2 0
2 -4 -1 3 2 2 2 1 2 2 2 3 3 3 3 1 1 1 1 2 1 -1 0 -0 0 1 1 -0 0 -0 -3 1 -1 -0 -1 -1 -3 -1 0 0 -1 -1 -2
5 5 1 3 5 3 5 2 2 0 2 23 2 1 -0 2 3 2 0 1 0 -1 1 0 0 -1 -0 -1 1 -1 -1 0 0 -2 -1 -1 -1 -2 -3 -1 -1 -1 -3
4 3 6 3 5 4 2 4 -6 3 2 1 2 1 4 3 2 2 1 2 1 1 1 -1 -0 -0 0 -1 1 0 1 0 -0 -2 -1 -2 -3 -0 -2 -2 -1 -2 -1
4 2 3 1 6 15 -3 1 -5 3 6 3 3 4 2 2 2 2 1 1 1 2 -1 -0 1 -0 -1 -1 1 1 0 -1 0 -0 -1 -1 -2 -2 -1 -1 -0 -3 -2
3 4 3 0 2 1 12 -4 4 -14 -2 0 3 2 1 2 3 1 0 2 1 1 0 -0 -0 -0 -1 1 0 -3 -2 -1 -1 -1 -1 0 -0 -1 -2 -2 1 -1 -3
2 1 1 1 2 2 1 4 -4 7 -7 -2 1 3 3 2 0 0 0 1 2 2 1 1 1 1 -1 2 -3 -2 -1 -2 -2 -3 -2 -1 -1 1 -3 -1 -2 -0 -4
0 -0 2 2 4 1 2 3 4 4 -1 -3 2 2 3 1 1 -0 1 0 0 -0 0 -1 -0 0 -0 -1 -1 -2 -1 -1 0 -2 -2 -2 1 -2 0 -0 -2 -2 -3
2 4 4 2 1 1 2 0 2 -0 1 5 -1 -2 2 0 1 0 1 2 1 2 0 1 1 -0 0 -1 -0 -1 -1 -1 -0 -1 -0 -4 -0 4 4 -6 -3 -1 -1
11 -2 0 3 4 5 3 3 1 0 1 -1 1 7 -0 -1 -0 1 1 1 1 1 -0 -0 -1 0 -0 -2 -1 -1 -0 -3 -0 0 -3 -3 -0 4 1 -4 -1 -2 2
1 11 2 -4 -1 1 1 2 2 3 2 1 2 -0 -1 2 1 -1 -0 -1 -1 -0 1 -0 -1 1 -1 -1 -3 -1 -1 -3 -2 -3 1 0 2 1 -4 -4 -2 -3 9
-3 -1 4 3 2 2 2 1 1 2 3 1 0 0 -0 -2 -1 1 2 -2 -1 -1 -3 -5 -2 -0 0 0 -2 -4 1 -2 -1 -1 -0 -2 -1 2 -2 -2 -6 3 2
2 1 -1 -1 -0 0 1 1 -0 -0 1 0 -0 2 2 1 3 1 -0 -1 0 1 -0 -1 -4 -3 1 2 -0 -3 -1 -3 -1 2 2 3 1 -6 -3 -5 1 1 -4
1 0 1 -1 0 -1 1 -1 1 -1 -0 0 0 1 2 -0 -0 -0 0 1 -1 -1 -2 -2 -2 -4 -1 -1 -5 -2 -4 -5 -5 -2 -0 1 -4 -1 -3 2 -1 -6 -1
-3 -0 1 -2 3 2 2 1 -1 -2 -2 -2 -1 -1 -1 1 -0 -1 -1 -0 1 -1 -0 -0 -2 -2 -3 -4 -8 0 -5 -0 -5 -4 1 5 -1 -6 -5 -3 -1 -1 -1
-4 -7 -3 -2 -1 -0 1 4 -0 -1 -1 -4 -2 0 -2 -1 -0 -0 -1 -0 -0 -0 1 -1 -3 -2 1 -5 -4 4 3 -2 -5 -3 -1 -0 -0 -4 -4 -3 -2 -2 -2
-1 -1 -3 -5 -4 -4 -3 -3 -1 2 -1 -2 -2 -2 -2 -2 -0 2 -0 -1 -2 -1 -2 -2 1 -2 -7 -3 5 1 -3 0 -6 -7 -2 -2 -0 -2 -3 -5 -2 -3 -2
Height
5731 5740 5748 5755 5762 5768 5773 5780 5786 5792 5798 5803 5808 5813 5816 5819 5824 5828 5834 5838 5842 5847 5851 5855 5860 5863 5867 5870 5873 5875 5877 5879 5881 5883 5884 5885 5887 5888 5888 5889 5889 5889 5889
5720 5729 5737 5744 5752 5759 5766 5773 5780 5786 5793 5798 5803 5807 5811 5813 5817 5821 5827 5831 5836 5840 5845 5849 5854 5858 5861 5865 5868 5871 5874 5876 5878 5880 5881 5882 5884 5884 5885 5885 5886 5886 5885
5709 5719 5727 5734 5742 5748 5757 5765 5773 5779 5785 5791 5796 5801 5805 5808 5812 5817 5822 5827 5831 5836 5840 5843 5847 5852 5856 5860 5864 5867 5870 5872 5874 5876 5877 5879 5880 5881 5881 5881 5882 5882 5882
5697 5706 5716 5723 5732 5739 5748 5756 5764 5771 5778 5784 5790 5795 5800 5805 5809 5813 5817 5821 5826 5830 5835 5838 5842 5846 5852 5855 5859 5862 5866 5868 5870 5872 5874 5875 5876 5876 5878 5878 5878 5878 5877
5685 5694 5704 5713 5721 5730 5738 5747 5755 5763 5770 5776 5782 5788 5792 5797 5801 5805 5810 5815 5820 5825 5830 5834 5838 5842 5846 5851 5853 5857 5860 5863 5866 5868 5870 5871 5872 5872 5873 5873 5874 5873 5872
5673 5682 5692 5701 5710 5719 5727 5737 5746 5754 5759 5766 5774 5780 5785 5790 5795 5799 5804 5809 5814 5819 5824 5829 5833 5837 5841 5845 5848 5852 5855 5858 5861 5863 5864 5866 5867 5868 5869 5869 5868 5867 5867
5662 5671 5681 5689 5698 5708 5717 5726 5735 5744 5749 5755 5763 5771 5776 5782 5787 5792 5797 5802 5807 5812 5817 5822 5827 5831 5834 5839 5843 5846 5850 5852 5854 5857 5858 5860 5862 5863 5864 5864 5863 5863 5861
5650 5659 5669 5678 5687 5697 5707 5716 5724 5732 5740 5746 5751 5760 5767 5773 5779 5784 5789 5795 5800 5805 5810 5815 5820 5825 5829 5833 5836 5839 5842 5846 5848 5850 5852 5854 5855 5857 5858 5858 5858 5857 5856
5639 5649 5659 5668 5676 5686 5696 5705 5713 5722 5730 5737 5743 5749 5756 5764 5770 5776 5781 5786 5792 5797 5802 5807 5812 5816 5820 5825 5828 5832 5834 5838 5841 5843 5845 5847 5849 5850 5850 5851 5851 5850 5849
5626 5637 5647 5656 5665 5674 5684 5693 5702 5712 5720 5728 5734 5740 5746 5753 5760 5766 5771 5776 5782 5787 5793 5798 5803 5807 5811 5816 5819 5823 5826 5830 5833 5835 5837 5839 5841 5842 5843 5844 5843 5843 5842
5613 5624 5635 5644 5653 5662 5672 5681 5690 5699 5707 5716 5723 5729 5736 5742 5750 5755 5761 5767 5772 5778 5783 5788 5793 5798 5802 5806 5810 5813 5817 5821 5823 5826 5829 5831 5832 5834 5835 5836 5836 5835 5835
5599 5610 5620 5630 5640 5649 5659 5668 5677 5687 5695 5699 5711 5718 5725 5732 5738 5745 5750 5756 5762 5768 5773 5778 5783 5788 5792 5796 5801 5805 5808 5811 5814 5817 5820 5822 5823 5825 5826 5827 5827 5827 5826
5584 5595 5606 5616 5627 5636 5646 5656 5664 5673 5682 5690 5698 5706 5713 5720 5727 5733 5739 5745 5751 5756 5762 5768 5773 5777 5782 5786 5790 5794 5798 5801 5804 5807 5810 5812 5814 5816 5817 5818 5819 5818 5818
5571 5581 5592 5603 5614 5625 5633 5642 5651 5660 5668 5676 5684 5692 5699 5707 5714 5721 5727 5733 5739 5745 5750 5756 5761 5766 5771 5776 5780 5784 5787 5791 5794 5797 5799 5802 5804 5806 5808 5809 5809 5809 5808
5557 5567 5578 5589 5599 5609 5618 5628 5639 5649 5655 5662 5671 5679 5687 5694 5700 5707 5714 5721 5727 5732 5738 5744 5749 5754 5759 5764 5769 5772 5776 5780 5784 5787 5790 5792 5794 5796 5797 5798 5799 5798 5798
5543 5553 5564 5574 5584 5594 5602 5613 5622 5633 5641 5649 5656 5664 5672 5680 5687 5693 5700 5707 5713 5719 5725 5730 5736 5742 5747 5752 5756 5760 5764 5768 5772 5775 5778 5780 5783 5785 5786 5787 5788 5788 5788
5528 5540 5550 5559 5569 5580 5589 5597 5606 5615 5624 5632 5641 5649 5657 5664 5672 5679 5686 5692 5699 5705 5711 5716 5722 5728 5733 5738 5743 5747 5751 5755 5759 5762 5765 5768 5772 5773 5775 5775 5776 5776 5777
5513 5523 5534 5545 5554 5564 5574 5583 5591 5600 5608 5617 5625 5632 5641 5649 5657 5664 5670 5677 5684 5690 5696 5702 5708 5713 5718 5723 5728 5733 5738 5742 5746 5749 5752 5754 5758 5761 5762 5762 5763 5766 5766
5499 5508 5519 5529 5538 5548 5557 5566 5576 5585 5593 5601 5609 5618 5625 5632 5640 5647 5655 5662 5668 5675 5681 5687 5694 5699 5703 5707 5713 5718 5723 5728 5731 5735 5737 5740 5743 5747 5748 5748 5751 5753 5755
5484 5494 5503 5513 5523 5532 5541 5550 5559 5567 5575 5584 5592 5600 5608 5616 5624 5631 5637 5644 5651 5658 5665 5670 5677 5683 5687 5692 5696 5702 5707 5712 5716 5719 5723 5726 5729 5732 5733 5734 5737 5740 5742
5472 5480 5489 5498 5506 5514 5524 5532 5541 5550 5558 5567 5575 5584 5592 5599 5606 5613 5621 5628 5635 5641 5647 5653 5659 5665 5670 5675 5679 5684 5690 5695 5700 5704 5708 5710 5713 5716 5718 5721 5723 5725 5726
5459 5467 5474 5482 5490 5498 5507 5515 5523 5532 5540 5549 5557 5565 5572 5580 5588 5595 5602 5610 5617 5624 5630 5636 5641 5647 5652 5657 5662 5667 5672 5677 5682 5688 5691 5695 5697 5700 5702 5705 5708 5709 5710
5449 5455 5461 5467 5474 5482 5490 5498 5506 5514 5522 5530 5538 5546 5554 5561 5569 5577 5584 5591 5598 5604 5610 5617 5623 5628 5633 5638 5643 5650 5654 5659 5664 5669 5673 5677 5679 5683 5685 5689 5691 5692 5694
5436 5441 5448 5454 5461 5467 5474 5480 5489 5497 5505 5512 5519 5527 5535 5542 5549 5557 5564 5571 5579 5585 5592 5598 5604 5609 5613 5618 5625 5632 5636 5641 5645 5650 5655 5659 5662 5665 5668 5671 5674 5676 5678
5425 5430 5435 5441 5447 5453 5459 5466 5473 5479 5487 5495 5502 5509 5516 5523 5530 5537 5544 5551 5558 5565 5572 5577 5583 5588 5593 5599 5605 5611 5617 5621 5625 5630 5634 5639 5643 5647 5650 5653 5656 5659 5661
5411 5416 5422 5428 5433 5439 5445 5452 5458 5464 5470 5477 5484 5491 5498 5504 5511 5518 5525 5531 5537 5544 5551 5557 5564 5569 5573 5580 5586 5591 5595 5600 5604 5610 5615 5619 5623 5627 5631 5634 5636 5638 5641